Weather reports worldwide

Advertisment
La Hague, France (7020): temperature & dewpoint: 10.07.2018 18:00:00 - 16.07.2018 18:00:00 (CEST)La Hague, France (7020): wind speed & gusts: 10.07.2018 18:00:00 - 16.07.2018 18:00:00 (CEST)La Hague, France (7020): wind direction: 10.07.2018 18:00:00 - 16.07.2018 18:00:00 (CEST)La Hague, France (7020): reduced air pressure: 10.07.2018 18:00:00 - 16.07.2018 18:00:00 (CEST)La Hague, France (7020): visibility: 10.07.2018 18:00:00 - 16.07.2018 18:00:00 (CEST)La Hague, France (7020): precipitation: 10.07.2018 18:00:00 - 16.07.2018 18:00:00 (CEST)
Date & Time tt [°C] td [°C] ff [km/h] ff [kn] fx [km/h] fx [kn] dd ppp [hPa] vv [km] rr [mm]
16.07.2018 18:00:00 19,1 16,3 17 9 - - SW 1015,1 - -
16.07.2018 17:00:00 19,6 15,9 17 9 24 13 SW 1015,2 8 -
16.07.2018 16:00:00 19,9 15,7 13 7 18 10 SW 1015,3 - 0,0
16.07.2018 15:00:00 18,3 15,4 13 7 21 11 SW 1015,5 - 0,0
16.07.2018 14:00:00 18,3 14,8 15 8 21 11 SW 1015,6 - -
16.07.2018 13:00:00 19,3 15,6 14 7 19 11 SW 1015,6 - -
16.07.2018 12:00:00 19,1 14,6 13 7 19 10 SW 1015,5 - -
16.07.2018 11:00:00 20,0 13,9 13 7 - - SW 1015,2 - -
16.07.2018 10:00:00 - - 11 6 - - SSW - - -
16.07.2018 09:00:00 18,9 14,8 6 4 9 5 SSW 1015,0 - 0,0
16.07.2018 08:00:00 17,8 15,2 4 2 8 4 - 1014,9 12 0,2
16.07.2018 07:00:00 14,5 13,0 5 3 8 4 SSW 1015,0 - 0,0
16.07.2018 06:00:00 13,3 11,9 5 3 10 5 SW 1015,4 - 0,0
16.07.2018 05:00:00 12,3 10,5 3 1 6 3 S 1015,6 18 0,0
16.07.2018 04:00:00 12,5 10,2 3 2 5 3 SW 1015,7 - 0,0
16.07.2018 03:00:00 15,9 14,3 2 1 11 6 NNW 1015,9 - 0,0
16.07.2018 02:00:00 14,4 12,8 10 5 12 7 SSW 1016,0 20 0,0
16.07.2018 01:00:00 14,2 12,2 9 5 10 6 SW 1016,2 - 0,0
16.07.2018 00:00:00 14,4 11,9 6 3 9 5 SW 1016,3 - 0,0
15.07.2018 23:00:00 14,8 10,8 2 1 5 3 SSW 1016,2 20 0,0
15.07.2018 22:00:00 17,8 11,4 2 1 - - S 1015,9 - -
15.07.2018 21:00:00 20,2 13,2 0 0 5 3 N 1015,7 - -
15.07.2018 20:00:00 19,9 13,1 3 2 5 3 NNW 1015,8 12 0,0
15.07.2018 19:00:00 - - 4 2 8 5 NNE - - -
15.07.2018 18:00:00 19,3 15,2 6 4 11 6 N 1016,7 - -
15.07.2018 17:00:00 19,9 15,1 9 5 14 8 NNE 1017,0 12 -
15.07.2018 16:00:00 19,8 16,1 10 5 - - NNE 1017,1 - -
15.07.2018 15:00:00 - - 9 5 - - NNE - - -
15.07.2018 14:00:00 - - 10 5 - - NNE - 12 -
15.07.2018 13:00:00 18,6 15,7 9 5 11 6 N 1017,8 - -
15.07.2018 12:00:00 18,4 15,3 7 4 9 5 N 1017,8 - -
15.07.2018 11:00:00 18,6 15,1 6 4 - - NNE 1017,8 12 -
15.07.2018 10:00:00 - - 5 3 9 5 NNE - - -
15.07.2018 09:00:00 18,6 14,7 6 3 8 5 - 1018,2 - 0,0
15.07.2018 08:00:00 17,9 14,6 4 2 5 3 - 1018,1 12 0,0
15.07.2018 07:00:00 12,9 11,5 5 3 6 3 - 1017,8 - 0,0
15.07.2018 06:00:00 12,1 10,8 5 3 6 3 E 1017,8 - 0,2
15.07.2018 05:00:00 11,7 10,1 0 0 3 2 N 1018,1 12 0,0
15.07.2018 04:00:00 13,5 11,9 0 0 4 2 N 1018,4 - 0,0
15.07.2018 03:00:00 11,7 9,8 2 1 8 5 SSW 1018,8 - 0,0
15.07.2018 02:00:00 12,1 9,8 7 4 9 5 S 1019,2 12 0,0
15.07.2018 01:00:00 12,4 10,6 6 3 8 4 SE 1019,4 - 0,0
15.07.2018 00:00:00 12,6 11,0 3 2 6 3 E 1019,4 - 0,0
14.07.2018 23:00:00 15,4 13,4 3 1 11 6 NNW 1019,5 12 0,0
14.07.2018 22:00:00 16,4 14,2 5 3 10 5 N 1019,3 - 0,0
14.07.2018 21:00:00 17,7 14,8 - - - - - 1019,3 - -
14.07.2018 20:00:00 18,5 15,4 7 4 - - NE 1019,3 12 -
14.07.2018 19:00:00 18,9 15,6 9 5 17 9 NE 1019,7 - 0,0
14.07.2018 18:00:00 19,1 15,6 13 7 16 9 ENE 1020,0 - -
14.07.2018 17:00:00 19,1 16,3 11 6 - - NNE 1020,4 12 -
14.07.2018 16:00:00 19,5 16,3 13 7 - - ENE 1020,6 - -
14.07.2018 15:00:00 19,6 16,6 11 6 - - NE 1020,9 - -
14.07.2018 14:00:00 - - 10 6 14 8 NNE - 15 -
14.07.2018 13:00:00 19,9 16,9 10 5 15 8 NE 1021,3 - -
14.07.2018 12:00:00 - - 11 6 - - NNE - - -
14.07.2018 11:00:00 - - 9 5 - - NNE - 20 -
14.07.2018 10:00:00 17,9 15,2 9 5 13 7 N 1021,8 - 0,0
14.07.2018 09:00:00 18,5 15,0 9 5 13 7 - 1021,8 - 0,0
14.07.2018 08:00:00 17,6 15,6 5 3 11 6 - 1021,4 14 0,0
14.07.2018 07:00:00 13,6 12,5 11 6 14 8 - 1021,2 - 0,0
14.07.2018 06:00:00 13,0 12,1 13 7 16 9 ESE 1021,3 - 0,0
14.07.2018 05:00:00 12,7 12,1 12 6 15 8 ESE 1021,5 8 0,0
14.07.2018 04:00:00 12,8 12,3 11 6 12 6 ESE 1021,7 - 0,2
14.07.2018 03:00:00 12,9 12,3 9 5 13 7 E 1022,1 - 0,0
14.07.2018 02:00:00 13,3 12,7 8 5 10 6 E 1022,3 - 0,0
14.07.2018 01:00:00 12,6 11,8 7 4 8 5 ESE 1022,5 - 0,0
14.07.2018 00:00:00 13,3 12,4 6 4 11 6 ESE 1022,5 - 0,0
13.07.2018 23:00:00 15,5 14,5 8 5 13 7 ENE 1022,3 12 0,0
13.07.2018 22:00:00 15,8 14,5 10 5 18 10 NE 1021,9 - 0,0
13.07.2018 21:00:00 16,1 14,8 13 7 22 12 E 1021,5 - 0,0
13.07.2018 20:00:00 16,7 14,7 17 9 23 12 E 1021,4 8 -
13.07.2018 19:00:00 17,5 14,9 16 9 - - E 1021,6 - -
13.07.2018 18:00:00 - - 20 11 - - ENE - - -
13.07.2018 17:00:00 - - - - - - - - 12 -
13.07.2018 16:00:00 18,9 15,0 22 12 32 17 ENE 1022,4 - -
13.07.2018 15:00:00 19,1 15,2 23 13 31 17 ENE 1022,5 - -
13.07.2018 14:00:00 18,8 15,1 21 12 - - ENE 1022,8 12 -
13.07.2018 13:00:00 18,8 15,3 21 12 - - ENE 1022,7 - -
13.07.2018 12:00:00 18,9 15,8 18 10 - - ENE 1022,6 - -
13.07.2018 11:00:00 18,6 15,8 15 8 - - ENE 1022,4 12 -
13.07.2018 10:00:00 18,2 15,6 13 7 18 10 ENE 1022,5 - 0,0
13.07.2018 09:00:00 17,9 15,7 10 5 18 10 ENE 1022,5 - 0,0
13.07.2018 08:00:00 16,5 15,4 9 5 14 7 - 1022,0 12 0,0
13.07.2018 07:00:00 14,4 13,4 12 7 20 11 E 1021,9 - 0,0
13.07.2018 06:00:00 13,8 12,9 15 8 19 10 E 1022,0 - 0,0
13.07.2018 05:00:00 13,9 13,1 14 8 19 10 ESE 1022,0 12 0,2
13.07.2018 04:00:00 13,9 13,1 14 8 17 9 E 1022,2 - 0,0
13.07.2018 03:00:00 13,9 13,1 14 7 17 9 ESE 1022,1 - 0,0
13.07.2018 02:00:00 13,5 12,6 12 6 14 8 E 1022,2 12 0,0
13.07.2018 01:00:00 13,5 12,6 11 6 13 7 ESE 1022,3 - 0,0
13.07.2018 00:00:00 14,3 13,0 8 4 21 12 E 1022,2 - 0,0
12.07.2018 23:00:00 15,7 14,2 15 8 19 11 ENE 1022,0 12 0,0
12.07.2018 22:00:00 15,9 14,1 14 8 18 10 ENE 1021,8 - 0,0
12.07.2018 21:00:00 16,9 14,7 13 7 - - ENE 1021,7 - -
12.07.2018 20:00:00 17,9 15,0 11 6 - - ENE 1021,7 12 -
12.07.2018 19:00:00 18,7 15,4 - - - - - 1021,6 - -
12.07.2018 18:00:00 19,3 15,4 - - - - - 1021,6 - -
12.07.2018 17:00:00 - - 18 10 - - E - 12 -
12.07.2018 16:00:00 19,7 15,8 19 10 26 14 ENE 1022,0 - 0,0
12.07.2018 15:00:00 19,7 15,3 18 10 - - ENE 1022,2 - -
12.07.2018 14:00:00 19,5 15,4 16 9 - - ENE 1022,2 - -
12.07.2018 13:00:00 19,1 15,0 - - - - - 1022,1 - -
12.07.2018 12:00:00 - - 15 8 18 10 ENE - - 0,0
12.07.2018 11:00:00 19,2 14,5 14 7 19 10 ENE 1021,6 18 -
12.07.2018 10:00:00 18,6 15,1 11 6 16 9 ENE 1021,6 - 0,0
12.07.2018 09:00:00 18,5 14,8 8 4 13 7 ENE 1021,3 - 0,0
12.07.2018 08:00:00 16,9 14,4 6 3 13 7 - 1021,2 16 0,0
12.07.2018 07:00:00 14,4 12,4 11 6 13 7 ESE 1021,1 - 0,0
12.07.2018 06:00:00 13,7 12,1 7 4 9 5 ESE 1020,9 - 0,0
12.07.2018 05:00:00 12,8 11,0 5 3 7 4 E 1020,9 18 0,0
12.07.2018 04:00:00 12,0 10,1 4 2 8 4 ESE 1020,9 - 0,0
12.07.2018 03:00:00 14,7 12,6 4 2 14 8 N 1021,0 - 0,0
12.07.2018 02:00:00 14,6 13,0 13 7 20 11 ESE 1021,2 20 0,0
12.07.2018 01:00:00 13,8 12,9 15 8 18 10 ESE 1021,2 - 0,0
12.07.2018 00:00:00 14,4 13,1 11 6 15 8 E 1021,5 - 0,0
11.07.2018 23:00:00 15,1 13,6 10 6 14 8 ENE 1021,5 20 0,0
11.07.2018 22:00:00 15,7 13,9 9 5 13 7 NNE 1021,2 - 0,0
11.07.2018 21:00:00 16,9 14,2 8 4 - - N 1021,2 - 0,0
11.07.2018 20:00:00 - - 12 6 - - ENE - 14 -
11.07.2018 19:00:00 18,8 14,5 12 6 - - ENE 1020,6 - -
11.07.2018 18:00:00 18,3 14,4 20 11 - - ENE 1021,3 - -
11.07.2018 17:00:00 - - - - 24 13 - - 14 -
11.07.2018 16:00:00 18,5 14,6 19 11 26 14 ENE 1021,9 - 0,0
11.07.2018 15:00:00 18,6 14,7 19 10 27 15 ENE 1022,1 - -
11.07.2018 14:00:00 - - 21 11 27 15 ENE - 20 -
11.07.2018 13:00:00 18,7 15,0 19 10 25 14 ENE 1022,5 - -
11.07.2018 12:00:00 18,8 15,5 18 10 - - ENE 1022,4 - -
11.07.2018 11:00:00 18,6 15,3 - - - - - 1022,5 25 -
11.07.2018 10:00:00 17,7 14,8 7 4 10 6 N 1022,4 - 0,0
11.07.2018 09:00:00 17,2 13,9 3 1 5 3 NNW 1022,4 - 0,2
11.07.2018 08:00:00 16,5 15,5 2 1 5 3 E 1022,1 16 0,0
11.07.2018 07:00:00 12,2 11,6 6 3 10 5 ESE 1022,0 - 0,0
11.07.2018 06:00:00 11,1 10,5 6 3 9 5 ESE 1022,1 - 0,0
11.07.2018 05:00:00 11,9 11,3 8 4 10 6 E 1022,3 14 0,0
11.07.2018 04:00:00 11,6 10,8 5 3 9 5 ESE 1022,5 - 0,0
11.07.2018 03:00:00 12,0 11,1 5 3 10 5 E 1022,6 - 0,0
11.07.2018 02:00:00 12,8 11,7 7 4 11 6 E 1022,5 14 0,0
11.07.2018 01:00:00 12,2 10,6 6 4 11 6 ESE 1022,6 - 0,0
11.07.2018 00:00:00 14,0 12,0 8 4 13 7 ESE 1022,7 - 0,0
10.07.2018 23:00:00 14,8 11,9 6 3 17 9 E 1022,8 14 0,0
10.07.2018 22:00:00 16,1 12,6 13 7 18 10 ENE 1022,4 - 0,0
10.07.2018 21:00:00 17,3 13,0 14 8 26 14 ENE 1022,5 - 0,0
10.07.2018 20:00:00 17,6 13,1 19 10 29 16 - 1022,4 16 0,0
10.07.2018 19:00:00 18,7 13,5 17 9 30 16 ENE 1022,3 - 0,0
10.07.2018 18:00:00 19,5 13,4 19 11 32 17 E 1022,3 - 0,0

tt = temperature
td = dewpoint
ff = wind speed
fx = gusts
dd = wind direction
ppp = reduced air pressure
vv = visibility
rr = precipitation

Next stations